sat.trackr.live / text

‹ back to catalog

2025-313D

NORAD 67251 · 2025-313D

PAYLOAD ACTIVE UNKNOWN

§ Identity

Operator
Country
TBD
Launch date
2025-12-28
Launch site
VOSTO
Launch vehicle
Mass (kg)
RCS (m²)

External: N2YO · Heavens-Above · Gunter

§ Orbital elements

Epoch: 2026-05-25T02:29:23.937792Z

Period
96.67 min
Inclination
97.5692°
Eccentricity
0.0150001
Mean motion
14.89532396 rev/d
Perigee alt
494.7 km
Apogee alt
704.1 km
Semi-major
6,977.5 km
B*
1.6853e-4
RAAN
216.4063°
Arg perigee
44.3310°
Mean anomaly
316.9805°
Rev number
2,196

§ Raw data

2025-313D1 67251U 25313D   26145.10374928  .00001923  00000+0  16853-3 0  99972 67251  97.5692 216.4063 0150001  44.3310 316.9805 14.89532396 21965

JSON: /api/v1/satellites/67251 · /tle

For live sub-satellite position, see the globe view (requires WebGL).

§ Visibility from observer

Set your observer location to see the next 7 days of passes ≥ 10°. The values pass through the URL so the page stays shareable.

No JS? Fill the form by hand. The geolocation button needs JavaScript.